Voltar ao catálogo

FREGAT R/B

AtivoMEO
NORAD 43235·ROCKET BODY·🇷🇺 Russia

Lançado Mar 9, 2018 de Guiana Space Centre

Loading…

Próximas Passagens (próximas 24 horas)

TLE

AtualizadoSource: Space-Track

Época: Sep 14, 2026, 12:46 UTC

1 43235U 18024E   26257.53250388 -.00000024  00000-0  00000-0 0  9995
2 43235   0.0325 112.8091 0010625  12.5853 234.7058  5.21347969162216

Acompanhe FREGAT R/B em tempo real com AllMySat

Download on the App Store